• In Uzbekistan
  • List of Countries
  • For 7 days
  • Water Temperature
  • Satellite Maps
  • Weather Map
  • Weather Widgets
  • user-avatar
    Login

    Hourly Weather Korbach

    Today, 22 January, Monday

    Time Temperature Precipitation Wind Pressure Humidity
    00:00 -3°C° 0 mm 2 mps 725 mmHg 90%
    01:00 -2°C° 0 mm 2 mps 724 mmHg 89%
    02:00 -2°C° 0.2 mm 3 mps 723 mmHg 89%
    03:00 -3°C° 0.2 mm 4 mps 722 mmHg 89%
    04:00 -3°C° 0.2 mm 4 mps 722 mmHg 89%
    05:00 -2°C° 0.3 mm 4 mps 721 mmHg 90%
    06:00 -2°C° 0.3 mm 4 mps 721 mmHg 90%
    07:00 -2°C° 0.3 mm 4 mps 720 mmHg 91%
    08:00 -2°C° 0.2 mm 4 mps 720 mmHg 92%
    09:00 0°C° 0.2 mm 3 mps 720 mmHg 93%
    10:00 0°C° 0.2 mm 3 mps 720 mmHg 94%
    11:00 +1°C° 0.1 mm 3 mps 720 mmHg 95%
    12:00 +2°C° 0.1 mm 3 mps 720 mmHg 96%
    13:00 +3°C° 0.1 mm 3 mps 720 mmHg 97%
    14:00 +3°C° 0.1 mm 3 mps 720 mmHg 97%
    15:00 +3°C° 0.1 mm 3 mps 721 mmHg 97%
    16:00 +3°C° 0.1 mm 3 mps 721 mmHg 97%
    17:00 +2°C° 0.1 mm 3 mps 722 mmHg 96%
    18:00 +2°C° 0.1 mm 3 mps 722 mmHg 96%
    19:00 +2°C° 0.1 mm 3 mps 723 mmHg 95%
    20:00 +2°C° 0.1 mm 3 mps 724 mmHg 95%
    21:00 +1°C° 0.1 mm 4 mps 725 mmHg 95%
    22:00 +1°C° 0.1 mm 4 mps 725 mmHg 95%
    23:00 +2°C° 0 mm 3 mps 726 mmHg 95%

    Tomorrow, 23 January, Tuesday

    Time Temperature Precipitation Wind Pressure Humidity
    00:00 +2°C° 0 mm 3 mps 727 mmHg 95%
    01:00 +2°C° 0 mm 3 mps 728 mmHg 95%
    02:00 +2°C° 0 mm 3 mps 728 mmHg 95%
    03:00 +2°C° 0 mm 3 mps 729 mmHg 96%
    04:00 +2°C° 0 mm 3 mps 729 mmHg 96%
    05:00 +1°C° 0 mm 3 mps 729 mmHg 96%
    06:00 +2°C° 0 mm 2 mps 730 mmHg 96%
    07:00 +2°C° 0 mm 2 mps 730 mmHg 96%
    08:00 +2°C° 0 mm 2 mps 730 mmHg 95%
    09:00 +2°C° 0 mm 2 mps 731 mmHg 95%
    10:00 +2°C° 0 mm 3 mps 731 mmHg 94%
    11:00 +3°C° 0 mm 3 mps 731 mmHg 91%
    12:00 +3°C° 0 mm 3 mps 731 mmHg 89%
    13:00 +4°C° 0 mm 4 mps 731 mmHg 86%
    14:00 +4°C° 0 mm 4 mps 731 mmHg 87%
    15:00 +4°C° 0 mm 4 mps 731 mmHg 87%
    16:00 +4°C° 0 mm 3 mps 730 mmHg 88%
    17:00 +4°C° 0.2 mm 4 mps 730 mmHg 89%
    18:00 +4°C° 0.2 mm 4 mps 730 mmHg 90%
    19:00 +4°C° 0.2 mm 4 mps 730 mmHg 91%
    20:00 +4°C° 0.3 mm 4 mps 730 mmHg 91%
    21:00 +4°C° 0.3 mm 4 mps 730 mmHg 92%
    22:00 +5°C° 0.3 mm 5 mps 729 mmHg 92%
    23:00 +5°C° 0.2 mm 4 mps 729 mmHg 92%

    Day after tomorrow, 24 January, Wednesday

    Time Temperature Precipitation Wind Pressure Humidity
    00:00 +5°C° 0.2 mm 4 mps 729 mmHg 93%
    01:00 +6°C° 0.2 mm 4 mps 729 mmHg 93%
    02:00 +6°C° 0 mm 4 mps 729 mmHg 93%
    03:00 +6°C° 0 mm 4 mps 729 mmHg 93%
    04:00 +6°C° 0 mm 4 mps 729 mmHg 93%
    05:00 +7°C° 0 mm 4 mps 729 mmHg 93%
    06:00 +7°C° 0 mm 4 mps 729 mmHg 93%
    07:00 +7°C° 0 mm 4 mps 729 mmHg 92%
    08:00 +7°C° 0 mm 5 mps 729 mmHg 92%
    09:00 +7°C° 0 mm 5 mps 729 mmHg 91%
    10:00 +8°C° 0 mm 6 mps 729 mmHg 90%
    11:00 +8°C° 0 mm 6 mps 728 mmHg 89%
    12:00 +8°C° 0 mm 6 mps 728 mmHg 88%
    13:00 +9°C° 0 mm 6 mps 728 mmHg 86%
    14:00 +9°C° 0 mm 6 mps 727 mmHg 86%
    15:00 +9°C° 0 mm 6 mps 727 mmHg 85%
    16:00 +9°C° 0 mm 6 mps 727 mmHg 84%
    17:00 +9°C° 0 mm 6 mps 726 mmHg 84%
    18:00 +8°C° 0 mm 6 mps 726 mmHg 85%
    19:00 +8°C° 0 mm 7 mps 726 mmHg 86%
    20:00 +8°C° 0 mm 6 mps 725 mmHg 85%
    21:00 +8°C° 0 mm 6 mps 725 mmHg 85%
    22:00 +8°C° 0 mm 6 mps 725 mmHg 84%
    23:00 +8°C° 0 mm 6 mps 725 mmHg 84%

    25 January, Thursday

    Time Temperature Precipitation Wind Pressure Humidity
    00:00 +7°C° 0 mm 6 mps 725 mmHg 84%
    01:00 +7°C° 0 mm 6 mps 725 mmHg 84%
    02:00 +7°C° 0.4 mm 5 mps 724 mmHg 85%
    03:00 +7°C° 0.4 mm 5 mps 724 mmHg 86%
    04:00 +7°C° 0.4 mm 5 mps 724 mmHg 87%
    05:00 +7°C° 0.5 mm 4 mps 724 mmHg 89%
    06:00 +7°C° 0.5 mm 4 mps 723 mmHg 90%
    07:00 +6°C° 0.5 mm 4 mps 723 mmHg 91%
    08:00 +6°C° 1 mm 4 mps 723 mmHg 91%
    09:00 +6°C° 1 mm 4 mps 723 mmHg 90%
    10:00 +6°C° 1 mm 4 mps 723 mmHg 90%
    11:00 +6°C° 0.9 mm 4 mps 723 mmHg 89%
    12:00 +6°C° 0.9 mm 4 mps 723 mmHg 89%
    13:00 +6°C° 0.9 mm 5 mps 722 mmHg 88%
    14:00 +6°C° 0.3 mm 4 mps 722 mmHg 88%
    15:00 +6°C° 0.3 mm 4 mps 722 mmHg 88%
    16:00 +6°C° 0.3 mm 4 mps 722 mmHg 88%
    17:00 +6°C° 0.4 mm 4 mps 722 mmHg 87%
    18:00 +5°C° 0.4 mm 4 mps 723 mmHg 87%
    19:00 +5°C° 0.4 mm 4 mps 723 mmHg 86%
    20:00 +4°C° 0 mm 4 mps 724 mmHg 87%
    21:00 +4°C° 0 mm 3 mps 724 mmHg 88%
    22:00 +3°C° 0 mm 3 mps 724 mmHg 88%
    23:00 +3°C° 0 mm 3 mps 725 mmHg 89%

    26 January, Friday

    Time Temperature Precipitation Wind Pressure Humidity
    00:00 +3°C° 0 mm 3 mps 725 mmHg 89%
    01:00 +3°C° 0 mm 3 mps 725 mmHg 90%
    02:00 +3°C° 0 mm 3 mps 725 mmHg 91%
    03:00 +3°C° 0 mm 2 mps 725 mmHg 91%
    04:00 +3°C° 0 mm 2 mps 725 mmHg 92%
    05:00 +3°C° 0 mm 2 mps 725 mmHg 92%
    06:00 +3°C° 0 mm 2 mps 725 mmHg 93%
    07:00 +2°C° 0 mm 2 mps 726 mmHg 93%
    08:00 +3°C° 0 mm 2 mps 726 mmHg 92%
    09:00 +3°C° 0 mm 2 mps 727 mmHg 91%
    10:00 +3°C° 0 mm 2 mps 727 mmHg 90%
    11:00 +3°C° 0 mm 3 mps 727 mmHg 88%
    12:00 +3°C° 0 mm 3 mps 727 mmHg 85%
    13:00 +4°C° 0 mm 3 mps 728 mmHg 82%
    14:00 +3°C° 0 mm 3 mps 728 mmHg 82%
    15:00 +3°C° 0 mm 3 mps 728 mmHg 82%
    16:00 +4°C° 0 mm 2 mps 728 mmHg 82%
    17:00 +4°C° 0 mm 2 mps 729 mmHg 85%
    18:00 +3°C° 0 mm 2 mps 729 mmHg 87%
    19:00 +2°C° 0 mm 2 mps 730 mmHg 89%
    20:00 +2°C° 0 mm 2 mps 730 mmHg 90%
    21:00 +1°C° 0 mm 3 mps 730 mmHg 91%
    22:00 0°C° 0 mm 3 mps 731 mmHg 92%
    23:00 0°C° 0 mm 3 mps 731 mmHg 92%

    27 January, Saturday

    Time Temperature Precipitation Wind Pressure Humidity
    00:00 0°C° 0 mm 3 mps 732 mmHg 92%
    01:00 0°C° 0 mm 3 mps 732 mmHg 92%
    02:00 +1°C° 0 mm 3 mps 732 mmHg 92%
    03:00 +1°C° 0 mm 3 mps 733 mmHg 91%
    04:00 +1°C° 0 mm 3 mps 733 mmHg 91%
    05:00 +1°C° 0 mm 3 mps 734 mmHg 91%
    06:00 +2°C° 0 mm 2 mps 734 mmHg 91%
    07:00 +2°C° 0 mm 2 mps 735 mmHg 92%
    08:00 +2°C° 0 mm 2 mps 736 mmHg 90%
    09:00 +2°C° 0 mm 2 mps 736 mmHg 88%
    10:00 +2°C° 0 mm 2 mps 737 mmHg 87%
    11:00 +2°C° 0 mm 3 mps 738 mmHg 82%
    12:00 +2°C° 0 mm 3 mps 738 mmHg 78%
    13:00 +2°C° 0 mm 3 mps 739 mmHg 73%
    14:00 +3°C° 0 mm 2 mps 739 mmHg 74%
    15:00 +3°C° 0 mm 2 mps 739 mmHg 74%
    16:00 +3°C° 0 mm 2 mps 740 mmHg 75%
    17:00 +3°C° 0 mm 1 mps 740 mmHg 78%
    18:00 +2°C° 0 mm 1 mps 740 mmHg 82%
    19:00 +1°C° 0 mm 1 mps 741 mmHg 85%
    20:00 +1°C° 0 mm 1 mps 741 mmHg 86%
    21:00 0°C° 0 mm 1 mps 741 mmHg 87%
    22:00 0°C° 0 mm 1 mps 742 mmHg 88%
    23:00 0°C° 0 mm 1 mps 742 mmHg 89%
    Show more